{"data":{"norad_id":28945,"epoch":"2026-05-24T09:52:58.302624Z","epoch_age_seconds":132708,"freshness":"FRESH","line1":"1 28945U 06007A   26144.41178591 -.00000221  00000+0  00000+0 0  9998","line2":"2 28945   0.5036  86.8928 0004923 332.6676 300.4836  1.00273199 73989","mean_motion":1.00273199,"eccentricity":0.0004923,"inclination_deg":0.5036,"raan_deg":86.8928,"arg_perigee_deg":332.6676,"mean_anomaly_deg":300.4836,"bstar":0,"rev_number":7398,"period_min":1436.0766529449,"perigee_km":35765.441067918,"apogee_km":35806.95607272,"semimajor_km":42164.335570319,"source":"CELESTRAK","updated_at":"2026-05-25T13:38:13.851460Z"}}